{"data":{"norad_id":57797,"epoch":"2026-05-25T05:09:31.584960Z","epoch_age_seconds":56066,"freshness":"FRESH","line1":"1 57797U 23136A   26145.21494890  .00000373  00000+0  89899-4 0  9994","line2":"2 57797  98.1958  69.8441 0006385 258.2568 101.7915 14.58703092144582","mean_motion":14.58703092,"eccentricity":0.0006385,"inclination_deg":98.1958,"raan_deg":69.8441,"arg_perigee_deg":258.2568,"mean_anomaly_deg":101.7915,"bstar":8.9899e-5,"rev_number":14458,"period_min":98.717827356192,"perigee_km":692.84698117139,"apogee_km":701.88239682824,"semimajor_km":7075.5016889998,"source":"CELESTRAK","updated_at":"2026-05-25T13:38:00.272148Z"}}